This is the latest recevied weather packets stored in our database for station/object KD7MPG-3. If no packets are shown the sender has not sent any weather packets the latest 10 day(s).
| Time | Temp. | Humidity | Pressure | Rain* | Wind** | Luminosity | Snow |
|---|---|---|---|---|---|---|---|
| 1777942586 | 23.89° C | 66% | 1019.6 hPa | 0 mm | - | - | - |
| 1777942286 | 23.89° C | 65% | 1019.6 hPa | 0 mm | - | - | - |
| 1777941983 | 23.89° C | 64% | 1019.5 hPa | 0 mm | - | - | - |
| 1777941684 | 24.44° C | 65% | 1019.6 hPa | 0 mm | - | - | - |
| 1777941381 | 24.44° C | 65% | 1019.6 hPa | 0 mm | - | - | - |
| 1777941081 | 24.44° C | 64% | 1019.6 hPa | 0 mm | - | - | - |
| 1777940782 | 25° C | 64% | 1019.5 hPa | 0 mm | - | - | - |
| 1777940479 | 25° C | 63% | 1019.7 hPa | 0 mm | - | - | - |
| 1777940177 | 25° C | 64% | 1019.7 hPa | 0 mm | - | - | - |
| 1777939878 | 25° C | 63% | 1019.8 hPa | 0 mm | - | - | - |
| 1777939573 | 25° C | 63% | 1019.7 hPa | 0 mm | - | - | - |
| 1777939273 | 25° C | 63% | 1019.8 hPa | 0 mm | - | - | - |
| 1777938971 | 25° C | 63% | 1019.7 hPa | 0 mm | - | - | - |
| 1777938671 | 25° C | 63% | 1019.8 hPa | 0 mm | - | - | - |
| 1777938371 | 24.44° C | 63% | 1019.8 hPa | 0 mm | - | - | - |
| 1777938072 | 24.44° C | 64% | 1019.9 hPa | 0 mm | - | - | - |
| 1777937765 | 24.44° C | 65% | 1019.9 hPa | 0 mm | - | - | - |
| 1777937465 | 24.44° C | 63% | 1019.9 hPa | 0 mm | - | - | - |
| 1777937165 | 24.44° C | 63% | 1020 hPa | 0 mm | - | - | - |
| 1777936865 | 24.44° C | 65% | 1019.9 hPa | 0 mm | - | - | - |
| 1777936565 | 24.44° C | 64% | 1020 hPa | 0 mm | - | - | - |
| 1777936266 | 24.44° C | 63% | 1019.9 hPa | 0 mm | - | - | - |
| 1777935959 | 24.44° C | 64% | 1020 hPa | 0 mm | - | - | - |
| 1777935659 | 23.89° C | 67% | 1020.1 hPa | 0 mm | - | - | - |
| 1777935359 | 23.89° C | 66% | 1020.1 hPa | 0 mm | - | - | - |
* Rain latest hour (hover to see other rain measurements)
** Current wind speed in m/s (hover to see current wind gust speed)